PulseSat

PulseSat

COSMOS 2474 (742)

Last updated on Jan. 17, 2019, 2:58 a.m. UTC

1 37829U 11055A   19016.77214073  .00000073  00000-0  00000+0 0  9998
2 37829  64.5170 164.6086 0006737 236.7797   0.1369  2.13101838 56747
UTC
Height (km)
Latitude
Longitude
Inclination
Orbital Period

Next 30 passes for location: Hong Kong

Rise time Rise Azimuth (degrees) Set time Set Azimuth (degrees) Duration Max altitude (degrees)

No matching passes for this satellites

PulseSat

PulseSat is the new satellites software and hardware trackering solution by Pulsely.
Satellite Two Line Element Set source: US Air Force Space Command

Download PulseSat for iOS
© 2017 Pulsely Limited